Location: Black Swamp Observatory
(41.3920°N, 84.1250°W)
Time: 23:19:40
(UTC-05:00)

Oscar 19 - Visible Passes

Search period start: 26 February 2024 00:00
Search period end: 07 March 2024 00:00
Orbit: 771 x 789 km, 98.9° (Epoch: 26 February)

Date Brightness Start Highest point End Pass type
(mag) Time Alt. Az. Time Alt. Az. Time Alt. Az.
26 Feb 11.2 05:17:49 10° NNE 05:22:52 57° E 05:27:52 10° S visible
27 Feb 12.5 04:45:56 10° NE 04:50:19 28° E 04:54:40 10° SSE visible
27 Feb 11.2 06:24:58 10° N 06:29:34 35° WNW 06:34:09 10° SW visible
28 Feb 13.5 04:15:02 10° ENE 04:17:37 14° E 04:20:11 10° ESE visible
28 Feb 10.5 05:52:15 10° N 05:57:20 69° WNW 06:02:24 10° SSW visible
29 Feb 11.1 05:19:53 10° NNE 05:24:57 59° ESE 05:29:59 10° S visible
01 Mar 12.5 04:47:59 10° NE 04:52:25 29° E 04:56:49 10° SSE visible
01 Mar 11.3 06:27:05 10° N 06:31:38 34° WNW 06:36:11 10° SW visible
02 Mar 13.5 04:16:58 10° ENE 04:19:43 14° E 04:22:26 10° ESE visible
02 Mar 10.6 05:54:20 10° N 05:59:25 67° WNW 06:04:28 10° SSW visible
03 Mar 11.1 05:21:57 10° NNE 05:27:02 61° ESE 05:32:04 10° S visible
04 Mar 12.4 04:50:01 10° NE 04:54:30 30° E 04:58:58 10° SSE visible
04 Mar 11.3 06:29:11 10° N 06:33:42 33° WNW 06:38:12 10° SW visible
05 Mar 13.4 04:18:57 10° ENE 04:21:48 15° E 04:24:39 10° SE visible
05 Mar 10.6 05:56:25 10° N 06:01:29 64° WNW 06:06:31 10° SSW visible
06 Mar 11.0 05:24:01 10° NNE 05:29:06 64° ESE 05:34:09 10° S visible
